QLK223 YBBN-YSSY

Flight info

Callsign QLK223
Flight time 1h 9m
Altitude 38000
Route BN H91 IGDAM H652 TESAT
Aircraft A319/M-SDE3FGHIRWY/LB1

Departure

Time 2026-04-23 01:14
Airport Brisbane International Airport (YBBN)

Arrival

Time 2026-04-23 02:23
Airport Sydney Kingsford Smith International Airport (YSSY)
Time Latitude Longitude Altitude Speed Heading
2026-04-23 00:59 -27.38251 153.12265 18 ft 0 kts 233°
2026-04-23 01:05 -27.38249 153.12269 19 ft 2 kts 229°
2026-04-23 01:05 -27.38236 153.12282 19 ft 2 kts 203°
2026-04-23 01:05 -27.38220 153.12287 18 ft 2 kts 160°
2026-04-23 01:05 -27.38205 153.12280 18 ft 2 kts 124°
2026-04-23 01:06 -27.38198 153.12271 18 ft 1 kts 104°
2026-04-23 01:07 -27.38206 153.12305 18 ft 11 kts 107°
2026-04-23 01:07 -27.38249 153.12407 18 ft 17 kts 116°
2026-04-23 01:07 -27.38308 153.12542 18 ft 19 kts 107°
2026-04-23 01:07 -27.38226 153.12631 18 ft 18 kts 26°
2026-04-23 01:08 -27.38107 153.12699 18 ft 20 kts 27°
2026-04-23 01:08 -27.37975 153.12775 18 ft 22 kts 26°
2026-04-23 01:08 -27.37843 153.12849 18 ft 22 kts 28°
2026-04-23 01:08 -27.37703 153.12931 18 ft 24 kts 27°
2026-04-23 01:09 -27.37567 153.13008 18 ft 22 kts 27°
2026-04-23 01:09 -27.37427 153.13087 18 ft 22 kts 26°
2026-04-23 01:09 -27.37293 153.13165 18 ft 19 kts 27°
2026-04-23 01:09 -27.37268 153.13216 18 ft 0 kts 95°
2026-04-23 01:10 -27.37276 153.13246 20 ft 7 kts 112°
2026-04-23 01:10 -27.37290 153.13277 18 ft 0 kts 117°
2026-04-23 01:10 -27.37301 153.13300 18 ft 7 kts 118°
2026-04-23 01:11 -27.37326 153.13354 18 ft 8 kts 117°
2026-04-23 01:11 -27.37330 153.13362 20 ft 0 kts 119°
2026-04-23 01:11 -27.37337 153.13375 19 ft 7 kts 123°
2026-04-23 01:12 -27.37396 153.13424 21 ft 12 kts 156°
2026-04-23 01:12 -27.37479 153.13421 22 ft 14 kts 212°
2026-04-23 01:12 -27.37526 153.13393 20 ft 0 kts 207°
2026-04-23 01:13 -27.37542 153.13383 20 ft 10 kts 207°
2026-04-23 01:13 -27.37738 153.13272 20 ft 59 kts 207°
2026-04-23 01:13 -27.38274 153.12967 23 ft 112 kts 207°
2026-04-23 01:13 -27.39124 153.12483 46 ft 157 kts 205°
2026-04-23 01:14 -27.40112 153.11926 623 ft 159 kts 203°
2026-04-23 01:14 -27.41105 153.11370 1237 ft 169 kts 204°
2026-04-23 01:14 -27.42246 153.10788 1613 ft 191 kts 192°
2026-04-23 01:14 -27.43603 153.10996 2100 ft 209 kts 152°
2026-04-23 01:15 -27.44852 153.11855 3036 ft 212 kts 150°
2026-04-23 01:15 -27.46190 153.12737 3669 ft 235 kts 151°
2026-04-23 01:15 -27.47690 153.13702 4243 ft 260 kts 150°
2026-04-23 01:15 -27.49389 153.14604 4882 ft 278 kts 165°
2026-04-23 01:16 -27.51387 153.14626 5375 ft 303 kts 187°
2026-04-23 01:16 -27.53540 153.14143 5717 ft 326 kts 190°
2026-04-23 01:16 -27.55774 153.13508 6405 ft 336 kts 196°
2026-04-23 01:16 -27.58001 153.12597 6962 ft 349 kts 198°
2026-04-23 01:17 -27.60336 153.11599 7333 ft 364 kts 199°
2026-04-23 01:17 -27.62716 153.10558 7948 ft 370 kts 199°
2026-04-23 01:17 -27.65134 153.09493 8639 ft 374 kts 199°
2026-04-23 01:17 -27.67574 153.08420 9309 ft 379 kts 199°
2026-04-23 01:18 -27.70045 153.07339 9969 ft 383 kts 199°
2026-04-23 01:18 -27.72549 153.06252 10588 ft 387 kts 199°
2026-04-23 01:18 -27.75075 153.05159 11181 ft 391 kts 199°
2026-04-23 01:18 -27.77592 153.04068 11778 ft 395 kts 199°
2026-04-23 01:19 -27.80168 153.02950 12396 ft 399 kts 199°
2026-04-23 01:19 -27.82769 153.01818 13036 ft 401 kts 199°
2026-04-23 01:19 -27.85353 153.00689 13935 ft 397 kts 198°
2026-04-23 01:19 -27.87930 152.99565 14688 ft 396 kts 198°
2026-04-23 01:20 -27.90497 152.98447 15410 ft 395 kts 198°
2026-04-23 01:20 -27.93056 152.97335 16149 ft 394 kts 198°
2026-04-23 01:20 -27.95625 152.96220 16813 ft 396 kts 198°
2026-04-23 01:20 -27.98199 152.95100 17378 ft 401 kts 198°
2026-04-23 01:21 -28.00826 152.93957 17871 ft 406 kts 198°
2026-04-23 01:21 -28.03474 152.92801 18426 ft 410 kts 198°
2026-04-23 01:21 -28.06144 152.91634 18929 ft 413 kts 198°
2026-04-23 01:21 -28.07960 152.90840 19267 ft 414 kts 198°
2026-04-23 01:22 -28.10657 152.89663 19772 ft 416 kts 199°
2026-04-23 01:22 -28.13360 152.88481 20284 ft 417 kts 199°
2026-04-23 01:22 -28.16074 152.87295 20790 ft 419 kts 199°
2026-04-23 01:22 -28.18799 152.86104 21275 ft 420 kts 200°
2026-04-23 01:23 -28.21490 152.84923 21749 ft 421 kts 200°
2026-04-23 01:23 -28.24262 152.83704 22211 ft 423 kts 200°
2026-04-23 01:23 -28.27003 152.82501 22644 ft 424 kts 200°
2026-04-23 01:23 -28.29761 152.81288 23071 ft 425 kts 201°
2026-04-23 01:24 -28.32530 152.80071 23475 ft 427 kts 201°
2026-04-23 01:24 -28.35277 152.78865 23861 ft 429 kts 201°
2026-04-23 01:24 -28.38071 152.77638 24192 ft 431 kts 201°
2026-04-23 01:24 -28.40872 152.76408 24524 ft 433 kts 201°
2026-04-23 01:25 -28.43688 152.75171 24833 ft 435 kts 201°
2026-04-23 01:25 -28.46515 152.73928 25118 ft 436 kts 201°
2026-04-23 01:25 -28.49317 152.72695 25913 ft 425 kts 201°
2026-04-23 01:25 -28.52063 152.71486 26514 ft 422 kts 202°
2026-04-23 01:26 -28.54811 152.70278 26938 ft 423 kts 202°
2026-04-23 01:26 -28.57565 152.69064 27308 ft 425 kts 202°
2026-04-23 01:26 -28.60332 152.67843 27652 ft 428 kts 202°
2026-04-23 01:26 -28.63115 152.66611 27990 ft 430 kts 202°
2026-04-23 01:27 -28.66827 152.64964 28398 ft 435 kts 202°
2026-04-23 01:27 -28.68734 152.64119 28500 ft 439 kts 202°
2026-04-23 01:27 -28.71598 152.62852 28746 ft 442 kts 202°
2026-04-23 01:27 -28.74477 152.61580 29037 ft 445 kts 202°
2026-04-23 01:28 -28.77374 152.60298 29327 ft 447 kts 202°
2026-04-23 01:28 -28.80236 152.59031 29681 ft 447 kts 202°
2026-04-23 01:28 -28.83132 152.57751 30145 ft 446 kts 202°
2026-04-23 01:28 -28.86122 152.56625 30450 ft 447 kts 199°
2026-04-23 01:29 -28.89088 152.55596 30275 ft 445 kts 198°
2026-04-23 01:29 -28.92025 152.54631 30493 ft 445 kts 198°
2026-04-23 01:29 -28.95000 152.53674 30741 ft 445 kts 198°
2026-04-23 01:29 -28.97979 152.52719 31086 ft 444 kts 198°
2026-04-23 01:30 -29.00946 152.51757 31460 ft 443 kts 198°
2026-04-23 01:30 -29.03902 152.50782 31847 ft 442 kts 198°
2026-04-23 01:30 -29.06846 152.49800 32226 ft 441 kts 198°
2026-04-23 01:30 -29.09787 152.48812 32607 ft 440 kts 198°
2026-04-23 01:31 -29.12723 152.47824 33001 ft 439 kts 198°
2026-04-23 01:31 -29.15645 152.46843 33399 ft 438 kts 198°
2026-04-23 01:31 -29.18572 152.45863 33800 ft 437 kts 198°
2026-04-23 01:31 -29.21481 152.44890 34215 ft 436 kts 198°
2026-04-23 01:32 -29.24390 152.43918 34577 ft 435 kts 198°
2026-04-23 01:32 -29.27292 152.42949 34926 ft 434 kts 198°
2026-04-23 01:32 -29.30188 152.41983 35271 ft 433 kts 198°
2026-04-23 01:32 -29.33078 152.41015 35605 ft 433 kts 198°
2026-04-23 01:33 -29.35975 152.40043 35844 ft 435 kts 198°
2026-04-23 01:33 -29.38889 152.39064 36003 ft 438 kts 199°
2026-04-23 01:33 -29.41812 152.38082 36260 ft 438 kts 199°
2026-04-23 01:33 -29.44744 152.37098 36555 ft 438 kts 199°
2026-04-23 01:34 -29.47667 152.36115 36837 ft 438 kts 199°
2026-04-23 01:34 -29.50585 152.35135 37117 ft 437 kts 199°
2026-04-23 01:34 -29.53505 152.34155 37402 ft 437 kts 199°
2026-04-23 01:34 -29.56425 152.33176 37689 ft 437 kts 199°
2026-04-23 01:35 -29.59340 152.32192 37965 ft 436 kts 199°
2026-04-23 01:35 -29.62253 152.31205 38230 ft 436 kts 199°
2026-04-23 01:35 -29.68088 152.29238 38319 ft 436 kts 199°
2026-04-23 01:36 -29.73904 152.27269 38318 ft 435 kts 199°
2026-04-23 01:36 -29.79713 152.25306 38320 ft 435 kts 199°
2026-04-23 01:37 -29.85482 152.23360 38321 ft 435 kts 199°
2026-04-23 01:37 -29.91291 152.21388 38328 ft 435 kts 199°
2026-04-23 01:38 -29.97105 152.19407 38329 ft 436 kts 199°
2026-04-23 01:38 -30.02919 152.17428 38339 ft 436 kts 199°
2026-04-23 01:39 -30.08739 152.15454 38343 ft 435 kts 199°
2026-04-23 01:39 -30.14549 152.13480 38350 ft 435 kts 199°
2026-04-23 01:40 -30.20359 152.11493 38352 ft 435 kts 199°
2026-04-23 01:40 -30.26170 152.09508 38357 ft 435 kts 199°
2026-04-23 01:41 -30.31978 152.07528 38363 ft 435 kts 199°
2026-04-23 01:41 -30.37779 152.05542 38365 ft 435 kts 199°
2026-04-23 01:42 -30.43576 152.03552 38361 ft 434 kts 199°
2026-04-23 01:42 -30.49330 152.01578 38359 ft 434 kts 198°
2026-04-23 01:43 -30.55123 151.99590 38360 ft 434 kts 198°
2026-04-23 01:43 -30.60908 151.97602 38368 ft 434 kts 198°
2026-04-23 01:44 -30.66693 151.95609 38364 ft 433 kts 198°
2026-04-23 01:44 -30.72477 151.93608 38363 ft 433 kts 198°
2026-04-23 01:45 -30.78252 151.91614 38361 ft 433 kts 198°
2026-04-23 01:45 -30.84028 151.89621 38359 ft 433 kts 198°
2026-04-23 01:46 -30.89804 151.87622 38362 ft 433 kts 198°
2026-04-23 01:46 -30.95585 151.85619 38368 ft 433 kts 198°
2026-04-23 01:47 -31.01352 151.83618 38363 ft 433 kts 198°
2026-04-23 01:47 -31.07093 151.81621 38367 ft 433 kts 198°
2026-04-23 01:48 -31.12867 151.79609 38370 ft 433 kts 198°
2026-04-23 01:48 -31.18641 151.77592 38381 ft 433 kts 198°
2026-04-23 01:49 -31.24420 151.75577 38376 ft 433 kts 198°
2026-04-23 01:49 -31.30196 151.73565 38379 ft 433 kts 198°
2026-04-23 01:50 -31.35980 151.71539 38383 ft 433 kts 198°
2026-04-23 01:50 -31.41747 151.69514 38388 ft 433 kts 198°
2026-04-23 01:51 -31.47520 151.67487 38387 ft 433 kts 198°
2026-04-23 01:51 -31.53285 151.65467 38395 ft 432 kts 198°
2026-04-23 01:52 -31.59060 151.63445 38397 ft 432 kts 198°
2026-04-23 01:52 -31.64825 151.61416 38166 ft 432 kts 198°
2026-04-23 01:53 -31.67659 151.60414 37405 ft 430 kts 198°
2026-04-23 01:53 -31.70493 151.59414 37116 ft 420 kts 198°
2026-04-23 01:53 -31.73271 151.58433 36609 ft 415 kts 198°
2026-04-23 01:53 -31.76001 151.57468 36271 ft 407 kts 197°
2026-04-23 01:54 -31.78703 151.56514 35866 ft 404 kts 197°
2026-04-23 01:54 -31.81389 151.55564 35444 ft 401 kts 197°
2026-04-23 01:54 -31.84053 151.54623 35040 ft 398 kts 197°
2026-04-23 01:54 -31.86702 151.53686 34617 ft 395 kts 197°
2026-04-23 01:55 -31.89327 151.52758 34174 ft 393 kts 197°
2026-04-23 01:55 -31.91930 151.51834 33748 ft 389 kts 197°
2026-04-23 01:55 -31.94508 151.50919 33326 ft 385 kts 197°
2026-04-23 01:55 -31.97056 151.50016 32920 ft 381 kts 197°
2026-04-23 01:56 -31.99579 151.49122 32518 ft 377 kts 197°
2026-04-23 01:56 -32.02076 151.48235 32119 ft 373 kts 196°
2026-04-23 01:56 -32.04552 151.47356 31723 ft 370 kts 196°
2026-04-23 01:56 -32.07005 151.46485 31344 ft 367 kts 196°
2026-04-23 01:57 -32.09445 151.45619 30964 ft 364 kts 196°
2026-04-23 01:57 -32.11857 151.44759 30602 ft 361 kts 195°
2026-04-23 01:57 -32.14254 151.43903 30202 ft 358 kts 196°
2026-04-23 01:57 -32.16627 151.43056 29832 ft 355 kts 196°
2026-04-23 01:58 -32.18979 151.42217 29496 ft 351 kts 195°
2026-04-23 01:58 -32.21302 151.41387 29151 ft 347 kts 196°
2026-04-23 01:58 -32.23605 151.40567 28817 ft 343 kts 195°
2026-04-23 01:58 -32.25878 151.39760 28482 ft 340 kts 195°
2026-04-23 01:59 -32.28129 151.38961 28154 ft 336 kts 195°
2026-04-23 01:59 -32.30353 151.38167 27827 ft 332 kts 195°
2026-04-23 01:59 -32.32550 151.37377 27484 ft 328 kts 195°
2026-04-23 01:59 -32.34723 151.36596 27168 ft 325 kts 195°
2026-04-23 02:00 -32.36873 151.35823 26843 ft 321 kts 195°
2026-04-23 02:00 -32.39003 151.35058 26507 ft 318 kts 195°
2026-04-23 02:00 -32.41112 151.34301 26177 ft 316 kts 195°
2026-04-23 02:00 -32.43210 151.33546 25847 ft 314 kts 195°
2026-04-23 02:01 -32.45299 151.32797 25502 ft 313 kts 195°
2026-04-23 02:01 -32.47378 151.32051 25166 ft 312 kts 195°
2026-04-23 02:01 -32.49489 151.31296 24826 ft 327 kts 195°
2026-04-23 02:01 -32.51728 151.30496 24436 ft 341 kts 195°
2026-04-23 02:02 -32.54017 151.29675 24053 ft 344 kts 195°
2026-04-23 02:02 -32.56297 151.28854 23615 ft 343 kts 195°
2026-04-23 02:02 -32.58582 151.28029 23219 ft 341 kts 195°
2026-04-23 02:02 -32.60857 151.27209 22840 ft 346 kts 195°
2026-04-23 02:03 -32.63173 151.26375 22441 ft 349 kts 194°
2026-04-23 02:03 -32.64713 151.25820 22177 ft 348 kts 194°
2026-04-23 02:03 -32.67771 151.24719 21655 ft 346 kts 194°
2026-04-23 02:03 -32.69342 151.24153 21378 ft 352 kts 194°
2026-04-23 02:04 -32.72489 151.23013 20840 ft 354 kts 194°
2026-04-23 02:04 -32.74812 151.22171 20429 ft 352 kts 194°
2026-04-23 02:04 -32.77153 151.21323 20023 ft 351 kts 194°
2026-04-23 02:04 -32.79482 151.20480 19616 ft 349 kts 194°
2026-04-23 02:05 -32.81041 151.19916 19341 ft 347 kts 194°
2026-04-23 02:05 -32.83367 151.19076 18945 ft 353 kts 193°
2026-04-23 02:05 -32.85724 151.18226 18502 ft 355 kts 193°
2026-04-23 02:05 -32.88083 151.17375 18073 ft 353 kts 194°
2026-04-23 02:06 -32.90434 151.16522 17655 ft 353 kts 194°
2026-04-23 02:06 -32.92777 151.15670 17254 ft 352 kts 194°
2026-04-23 02:06 -32.95112 151.14822 16843 ft 350 kts 194°
2026-04-23 02:06 -32.97447 151.13972 16439 ft 349 kts 194°
2026-04-23 02:07 -32.99767 151.13129 16035 ft 348 kts 194°
2026-04-23 02:07 -33.02049 151.12298 15638 ft 347 kts 194°
2026-04-23 02:07 -33.04354 151.11456 15235 ft 346 kts 194°
2026-04-23 02:07 -33.06657 151.10618 14833 ft 345 kts 194°
2026-04-23 02:08 -33.08950 151.09786 14437 ft 344 kts 194°
2026-04-23 02:08 -33.11237 151.08960 14014 ft 343 kts 194°
2026-04-23 02:08 -33.13521 151.08132 13604 ft 342 kts 194°
2026-04-23 02:08 -33.15786 151.07306 13199 ft 340 kts 194°
2026-04-23 02:09 -33.18046 151.06478 12798 ft 339 kts 194°
2026-04-23 02:09 -33.20298 151.05652 12398 ft 338 kts 194°
2026-04-23 02:09 -33.22543 151.04872 12025 ft 332 kts 189°
2026-04-23 02:09 -33.24778 151.04663 11899 ft 314 kts 175°
2026-04-23 02:10 -33.26909 151.04991 11440 ft 305 kts 169°
2026-04-23 02:10 -33.28994 151.05386 10895 ft 301 kts 169°
2026-04-23 02:10 -33.31023 151.05776 10440 ft 291 kts 169°
2026-04-23 02:10 -33.33034 151.06163 9780 ft 291 kts 169°
2026-04-23 02:11 -33.34993 151.06542 9481 ft 281 kts 169°
2026-04-23 02:11 -33.36912 151.06913 9036 ft 278 kts 169°
2026-04-23 02:11 -33.38801 151.07280 8685 ft 274 kts 169°
2026-04-23 02:11 -33.40675 151.07641 8342 ft 272 kts 169°
2026-04-23 02:12 -33.42543 151.08000 8015 ft 270 kts 169°
2026-04-23 02:12 -33.44394 151.08353 7692 ft 268 kts 169°
2026-04-23 02:12 -33.46206 151.08702 7428 ft 261 kts 169°
2026-04-23 02:12 -33.47990 151.09046 7063 ft 258 kts 169°
2026-04-23 02:13 -33.49763 151.09390 6772 ft 257 kts 168°
2026-04-23 02:13 -33.51481 151.09722 6637 ft 249 kts 169°
2026-04-23 02:13 -33.53154 151.10042 6497 ft 236 kts 169°
2026-04-23 02:13 -33.54713 151.10338 6370 ft 218 kts 169°
2026-04-23 02:14 -33.56153 151.10614 6239 ft 202 kts 168°
2026-04-23 02:14 -33.57479 151.10867 6155 ft 183 kts 168°
2026-04-23 02:14 -33.58705 151.11102 5867 ft 177 kts 168°
2026-04-23 02:14 -33.59913 151.11338 5476 ft 175 kts 168°
2026-04-23 02:15 -33.62331 151.11674 4770 ft 178 kts 175°
2026-04-23 02:15 -33.63586 151.11750 4265 ft 182 kts 175°
2026-04-23 02:15 -33.64821 151.11828 4066 ft 171 kts 175°
2026-04-23 02:16 -33.65969 151.11897 3939 ft 161 kts 175°
2026-04-23 02:16 -33.67079 151.11966 3820 ft 157 kts 175°
2026-04-23 02:16 -33.68151 151.12029 3691 ft 151 kts 175°
2026-04-23 02:16 -33.69189 151.12090 3577 ft 149 kts 175°
2026-04-23 02:17 -33.70222 151.12153 3445 ft 148 kts 175°
2026-04-23 02:17 -33.71246 151.12215 3325 ft 148 kts 174°
2026-04-23 02:17 -33.72278 151.12278 3196 ft 148 kts 174°
2026-04-23 02:17 -33.73306 151.12327 3088 ft 147 kts 175°
2026-04-23 02:18 -33.74331 151.12459 3027 ft 146 kts 169°
2026-04-23 02:18 -33.75333 151.12657 3021 ft 146 kts 167°
2026-04-23 02:18 -33.76279 151.12874 3000 ft 134 kts 167°
2026-04-23 02:18 -33.77161 151.13089 3000 ft 128 kts 166°
2026-04-23 02:19 -33.78029 151.13308 2952 ft 128 kts 166°
2026-04-23 02:19 -33.78917 151.13535 2826 ft 133 kts 166°
2026-04-23 02:19 -33.79829 151.13768 2658 ft 135 kts 165°
2026-04-23 02:19 -33.80785 151.14015 2490 ft 143 kts 167°
2026-04-23 02:20 -33.81761 151.14267 2301 ft 145 kts 166°
2026-04-23 02:20 -33.82753 151.14523 2103 ft 145 kts 165°
2026-04-23 02:20 -33.83737 151.14777 1918 ft 144 kts 166°
2026-04-23 02:20 -33.84722 151.15032 1733 ft 145 kts 166°
2026-04-23 02:21 -33.85706 151.15286 1524 ft 146 kts 165°
2026-04-23 02:21 -33.86665 151.15534 1331 ft 133 kts 166°
2026-04-23 02:21 -33.87537 151.15759 1149 ft 126 kts 165°
2026-04-23 02:21 -33.88384 151.15979 1008 ft 123 kts 164°
2026-04-23 02:22 -33.89220 151.16195 830 ft 125 kts 166°
2026-04-23 02:22 -33.90066 151.16415 661 ft 122 kts 166°
2026-04-23 02:22 -33.90895 151.16630 515 ft 125 kts 165°
2026-04-23 02:22 -33.91746 151.16850 341 ft 124 kts 166°
2026-04-23 02:23 -33.92582 151.17065 142 ft 120 kts 166°
2026-04-23 02:23 -33.93345 151.17264 21 ft 99 kts 167°
2026-04-23 02:23 -33.93879 151.17404 18 ft 56 kts 168°
2026-04-23 02:23 -33.94235 151.17504 25 ft 42 kts 163°
2026-04-23 02:24 -33.94462 151.17659 27 ft 14 kts 139°
2026-04-23 02:24 -33.94472 151.17670 25 ft 0 kts 139°
2026-04-23 02:24 -33.94479 151.17677 26 ft 5 kts 138°
2026-04-23 02:24 -33.94517 151.17751 23 ft 15 kts 87°
2026-04-23 02:25 -33.94430 151.17765 24 ft 17 kts 344°
2026-04-23 02:25 -33.94301 151.17725 22 ft 21 kts 346°
2026-04-23 02:25 -33.94149 151.17680 22 ft 24 kts 345°
2026-04-23 02:25 -33.93981 151.17630 23 ft 26 kts 348°
2026-04-23 02:26 -33.93868 151.17669 19 ft 16 kts 59°
2026-04-23 02:26 -33.93770 151.17694 22 ft 16 kts 348°
2026-04-23 02:26 -33.93680 151.17660 28 ft 11 kts 331°
2026-04-23 02:26 -33.93609 151.17618 28 ft 13 kts 342°
2026-04-23 02:27 -33.93514 151.17593 28 ft 15 kts 347°
2026-04-23 02:27 -33.93411 151.17594 30 ft 15 kts
2026-04-23 02:27 -33.93303 151.17572 28 ft 12 kts 348°
2026-04-23 02:27 -33.93267 151.17636 30 ft 12 kts 87°
2026-04-23 02:28 -33.93263 151.17687 30 ft 0 kts 84°